TimeCST,TemperatureF,Dew PointF,Humidity,Sea Level PressureIn,VisibilityMPH,Wind Direction,Wind SpeedMPH,Gust SpeedMPH,PrecipitationIn,Events,Conditions,WindDirDegrees,DateUTC
12:55 AM,5.5,2.5,87,30.45,10.0,Calm,Calm,-,N/A,,Clear,0,2013-02-21 06:55:00
1:55 AM,4.3,0.9,86,30.44,10.0,Calm,Calm,-,N/A,,Clear,0,2013-02-21 07:55:00
2:55 AM,4.3,0.5,84,30.44,10.0,Calm,Calm,-,N/A,,Clear,0,2013-02-21 08:55:00
3:55 AM,2.7,-0.6,86,30.46,10.0,Calm,Calm,-,N/A,,Clear,0,2013-02-21 09:55:00
4:55 AM,1.9,-1.1,87,30.48,10.0,Calm,Calm,-,N/A,,Clear,0,2013-02-21 10:55:00
5:55 AM,0.9,-2.6,86,30.43,10.0,NNE,4.6,-,N/A,,Clear,30,2013-02-21 11:55:00
6:55 AM,5.0,-0.4,78,30.46,10.0,South,5.8,-,N/A,,Scattered Clouds,170,2013-02-21 12:55:00
7:36 AM,5.0,-0.4,78,30.49,10.0,Calm,Calm,-,N/A,,Mostly Cloudy,0,2013-02-21 13:36:00
7:55 AM,6.8,1.4,79,30.48,10.0,Calm,Calm,-,N/A,,Overcast,0,2013-02-21 13:55:00
8:34 AM,8.6,3.2,79,30.41,6.0,ESE,4.6,-,N/A,Snow,Light Snow,110,2013-02-21 14:34:00
8:55 AM,8.6,5.0,85,30.50,4.0,East,4.6,-,N/A,Snow,Light Snow,90,2013-02-21 14:55:00
9:01 AM,10.4,5.0,79,30.49,6.0,East,5.8,-,N/A,Snow,Light Snow,80,2013-02-21 15:01:00
9:02 AM,10.4,5.0,79,30.49,6.0,East,6.9,-,N/A,Snow,Light Snow,80,2013-02-21 15:02:00
9:55 AM,12.2,8.6,85,30.46,10.0,East,6.9,-,N/A,,Overcast,80,2013-02-21 15:55:00
11:55 AM,17.6,10.4,73,30.42,10.0,ENE,8.1,-,N/A,,Overcast,70,2013-02-21 17:55:00
12:55 PM,19.4,10.4,68,30.37,10.0,East,11.5,-,N/A,,Overcast,80,2013-02-21 18:55:00
1:55 PM,21.2,10.4,63,30.33,10.0,ENE,9.2,-,N/A,,Overcast,60,2013-02-21 19:55:00
2:55 PM,21.2,12.2,68,30.35,10.0,East,9.2,-,N/A,,Overcast,100,2013-02-21 20:55:00
3:55 PM,21.2,12.2,68,30.32,10.0,East,9.2,-,N/A,,Overcast,90,2013-02-21 21:55:00
3:56 PM,21.2,12.2,68,30.32,10.0,East,9.2,-,N/A,,Mostly Cloudy,90,2013-02-21 21:56:00
4:53 PM,21.2,15.8,80,30.30,10.0,East,12.7,-,N/A,,Overcast,90,2013-02-21 22:53:00
4:55 PM,20.8,15.6,80,30.30,10.0,East,10.4,-,N/A,,Overcast,90,2013-02-21 22:55:00
5:55 PM,19.4,14.0,80,30.27,10.0,NE,9.2,-,N/A,,Overcast,50,2013-02-21 23:55:00
6:55 PM,21.2,15.8,80,30.24,10.0,East,8.1,-,N/A,,Overcast,80,2013-02-22 00:55:00
7:55 PM,21.2,17.6,86,30.21,10.0,ENE,11.5,20.7,N/A,,Overcast,70,2013-02-22 01:55:00
8:55 PM,21.2,19.4,93,30.17,10.0,ENE,15.0,20.7,N/A,,Overcast,70,2013-02-22 02:55:00
9:55 PM,23.0,19.4,86,30.14,10.0,ENE,17.3,26.5,N/A,,Overcast,70,2013-02-22 03:55:00
10:55 PM,23.0,21.2,93,30.14,10.0,East,16.1,-,N/A,,Overcast,90,2013-02-22 04:55:00
11:55 PM,23.0,21.2,93,30.10,10.0,East,13.8,23.0,N/A,,Overcast,80,2013-02-22 05:55:00